Location: Grange Rosano
(44.4500°N, 6.9667°E)
Time: 16:11:15
(UTC+00:00)

ADEOS II - Pass Details

Date: 03 October 2022
Orbit: 799 x 799 km, 98.6° (Epoch: 30 November)

Event Time Altitude Azimuth Distance (km) Brightness Sun altitude
Rises 01:52:07 0° 12° (NNE) 3,319 5.9 -37.7°
Reaches altitude 10° 01:54:28 10° 11° (NNE) 2,385 5.0 -37.4°
Enters shadow 01:56:12 22° 10° (N) 1,715 4.1 -37.1°
